Pontianak, Indonesia

3:55 PM WIB on June 26, 2017 (GMT +0700)
Supadio

Weather History for WIOO - April, 2013

Change the Weather History Date:

Wednesday, April 24, 2013

  Actual Average Record
Temperature  
Mean Temperature 84 °F -  
Max Temperature 92 °F - - ()
Min Temperature 75 °F - - ()
Cooling Degree Days 18    
Growing Degree Days 34 (Base 50)    
Moisture  
Dew Point 75 °F    
Average Humidity 76    
Maximum Humidity 100    
Minimum Humidity 15    
Precipitation  
Precipitation 0.04 in - - ()
Sea Level Pressure  
Sea Level Pressure 29.81 in    
Wind  
Wind Speed 2 mph ()    
Max Wind Speed 7 mph    
Max Gust Speed -    
Visibility 5.0 miles    
Events      
T = Trace of Precipitation, MM = Missing Value Source: Averaged Metar Reports

Daily Weather History Graph

Daily Weather History Graph

Search for Another Location

Airport or City:

Trip Planner

Search our weather history database for the weather conditions in past years. The results will help you decide how hot, cold, wet, or windy it might be!

Date:

Astronomy

Apr. 24, 2013 Rise Set
Actual Time 5:37 AM WIB 5:43 PM WIB
Civil Twilight 5:16 AM WIB 6:05 PM WIB
Nautical Twilight 4:51 AM WIB 6:29 PM WIB
Astronomical Twilight 4:26 AM WIB 6:54 PM WIB
Moon 4:24 PM WIB (4/24) 3:57 AM WIB (4/24)
Length of Visible Light 12h 48m
Length of Day
12h 06m
Waxing Gibbous, 96% of the Moon is Illuminated
Apr 24
Waxing Gibbous
Apr 26
Full
May 2
Last Quarter
May 10
New
May 18
First Quarter

Hourly Weather History & Observations

Time (WIB) Temp. Heat Index Dew Point Humidity Pressure Visibility Wind Dir Wind Speed Gust Speed Precip Events Conditions
1:00 AM 75 °F - 74 °F 96% 29.87 in 4 mi Calm Calm - -   Partly Cloudy
4:00 AM 75 °F - 74 °F 96% 29.85 in 4 mi Calm Calm - -   Partly Cloudy
5:00 AM 75.2 °F - 73.4 °F 94% 29.83 in 3.7 mi Calm Calm - N/A   Scattered Clouds
5:30 AM 75.2 °F - 73.4 °F 94% 29.83 in 3.7 mi Calm Calm - N/A   Scattered Clouds
6:00 AM 75.2 °F - 73.4 °F 94% 29.86 in 4.3 mi Calm Calm - N/A   Scattered Clouds
6:30 AM 75.2 °F - 73.4 °F 94% 29.86 in 4.3 mi Calm Calm - N/A   Scattered Clouds
7:00 AM 75 °F - 75 °F 99% 29.88 in 4 mi Calm Calm - -   Partly Cloudy
7:00 AM 75.2 °F - 75.2 °F 100% 29.86 in 4.3 mi Calm Calm - N/A   Mostly Cloudy
8:00 AM 77.0 °F - 75.2 °F 94% 29.86 in 5.0 mi Calm Calm - N/A   Mostly Cloudy
9:30 AM 82.4 °F 89.5 °F 75.2 °F 79% 29.89 in 6.2 mi North 5.8 mph - N/A   Mostly Cloudy
10:00 AM 86 °F - 78 °F 71% 29.90 in 6 mi North 3.5 mph - -   Mostly Cloudy
10:30 AM 86.0 °F 99.3 °F 78.8 °F 79% 29.86 in 6.2 mi North 6.9 mph - N/A   Mostly Cloudy
11:30 AM 87.8 °F 97.6 °F 75.2 °F 66% 29.86 in 6.2 mi North 6.9 mph - N/A   Mostly Cloudy
12:00 PM 89.6 °F 102.2 °F 77.0 °F 66% 29.83 in 6.2 mi North 3.5 mph - N/A   Mostly Cloudy
1:00 PM 90 °F - 76 °F 55% 29.81 in 6 mi Calm Calm - -   Mostly Cloudy
1:00 PM 89.6 °F 99.8 °F 75.2 °F 62% 29.80 in 6.2 mi Calm Calm - N/A   Mostly Cloudy
2:00 PM 89.6 °F 102.2 °F 77.0 °F 66% 29.74 in 6.2 mi North 3.5 mph - N/A   Scattered Clouds
2:30 PM 91.4 °F 105.1 °F 77.0 °F 63% 29.74 in 6.2 mi North 6.9 mph - N/A   Scattered Clouds
3:30 PM 93.2 °F 107.2 °F 77.0 °F 59% 29.71 in 6.2 mi North 5.8 mph - N/A   Scattered Clouds
4:00 PM 92 °F - 76 °F 51% 29.74 in 6 mi Calm Calm - -   Partly Cloudy
4:00 PM 93.2 °F 105.0 °F 75.2 °F 56% 29.71 in 6.2 mi Calm Calm - N/A   Scattered Clouds
4:30 PM 93.2 °F - 39.2 °F 15% 29.71 in 6.2 mi North 6.9 mph - N/A   Scattered Clouds
5:00 PM 91.4 °F 105.1 °F 77.0 °F 63% 29.71 in 6.2 mi North 3.5 mph - N/A   Partly Cloudy
5:30 PM 91.4 °F 105.1 °F 77.0 °F 63% 29.74 in 6.2 mi SSE 6.9 mph - N/A   Partly Cloudy
6:00 PM 89.6 °F 104.7 °F 78.8 °F 70% 29.74 in 4.3 mi North 5.8 mph - N/A   Scattered Clouds
6:30 PM 86.0 °F 99.3 °F 78.8 °F 79% 29.74 in 4.3 mi Calm Calm - N/A   Scattered Clouds
7:00 PM 85 °F - 78 °F 75% 29.81 in 4 mi WSW 3.5 mph - -   Partly Cloudy
7:00 PM 86.0 °F 99.3 °F 78.8 °F 79% 29.77 in 3.7 mi WSW 3.5 mph - N/A   Scattered Clouds
7:30 PM 84.2 °F 96.1 °F 78.8 °F 84% 29.80 in 3.7 mi Calm Calm - N/A   Scattered Clouds
8:00 PM 84.2 °F 96.1 °F 78.8 °F 84% 29.80 in 3.7 mi Calm Calm - N/A   Scattered Clouds
8:30 PM 84.2 °F 96.1 °F 78.8 °F 84% 29.83 in 3.7 mi Calm Calm - N/A   Scattered Clouds
9:00 PM 82.4 °F 90.9 °F 77.0 °F 84% 29.83 in - North - - N/A   Scattered Clouds
9:30 PM 82.4 °F 90.9 °F 77.0 °F 84% 29.83 in 3.7 mi Calm Calm - N/A   Scattered Clouds
10:00 PM 81 °F - 77 °F 85% 29.87 in 4 mi NNE 6.9 mph - -   Partly Cloudy